This demonstration page uses our WeatherBlox Daily Observations layout. Learn more.

Left ArrowRight Arrow

41.55636, -103.73856

Hourly Observations for December 9, 2017

Temp ( °F °C ) Dew Point ( °F °C ) Humidity (%) Winds ( mph kmh ) Pressure ( in mb ) Visibility ( mi km ) Precip ( " mm )
12:53 am 00:53 Clear 30 -1.1 12 -11.1 47 47 WNW 8 13 30.26 1025 10 16 N/A
1:53 am 01:53 Clear 24 -4.4 11 -11.7 57 57 NW 8 13 30.27 1025 10 16 N/A
2:53 am 02:53 Clear 28 -2.2 11 -11.7 49 49 WNW 12 19 30.26 1025 10 16 N/A
3:53 am 03:53 Clear 29 -1.7 11 -11.7 47 47 WNW 12 19 30.26 1025 10 16 N/A
4:53 am 04:53 Clear 27 -2.8 12 -11.1 53 53 NW 12 19 30.29 1026 10 16 N/A
5:53 am 05:53 Clear 28 -2.2 12 -11.1 51 51 WNW 13 20 30.29 1026 10 16 N/A
6:53 am 06:53 Clear 31 -0.6 13 -10.6 47 47 WNW 14 22 30.30 1026 10 16 N/A
7:53 am 07:53 Sunny 31 -0.6 13 -10.6 47 47 WNW 15 24 30.30 1026 10 16 N/A
8:53 am 08:53 Sunny 37 2.8 14 -10 39 39 WNW 16 26 30.30 1026 10 16 N/A
9:53 am 09:53 Sunny 46 7.8 15 -9.4 29 29 WNW 16 26 30.31 1027 10 16 N/A
10:53 am 10:53 Sunny 52 11.1 12 -11.1 20 20 WNW 16 26 30.31 1027 10 16 N/A
11:53 am 11:53 Sunny 56 13.3 9 -12.8 15 15 WNW 20 31 30.27 1025 10 16 N/A
12:53 pm 12:53 Sunny 57 13.9 7 -13.9 13 13 WNW 21 33 30.25 1025 10 16 N/A
1:53 pm 13:53 Sunny 58 14.4 3 -16.1 11 11 NW 24 39 30.26 1025 10 16 N/A
2:53 pm 14:53 Sunny 57 13.9 3 -16.1 11 11 NW 24 39 30.26 1025 10 16 N/A
3:53 pm 15:53 Sunny 53 11.7 3 -16.1 13 13 NW 15 24 30.28 1026 10 16 N/A
4:53 pm 16:53 Clear 46 7.8 11 -11.7 24 24 WNW 8 13 30.33 1027 10 16 N/A
5:53 pm 17:53 Clear 44 6.7 12 -11.1 27 27 W 18 30 30.33 1027 10 16 N/A
6:53 pm 18:53 Clear 41 5 14 -10 33 33 WNW 16 26 30.35 1028 10 16 N/A
7:53 pm 19:53 Clear 35 1.7 13 -10.6 40 40 WNW 9 15 30.38 1029 10 16 N/A
8:53 pm 20:53 Clear 30 -1.1 12 -11.1 47 47 NW 6 9 30.39 1029 10 16 N/A
9:53 pm 21:53 Clear 29 -1.7 12 -11.1 49 49 NW 9 15 30.37 1029 10 16 N/A
10:53 pm 22:53 Clear 29 -1.7 12 -11.1 49 49 WNW 10 17 30.37 1028 10 16 N/A
11:53 pm 23:53 Clear 31 -0.6 11 -11.7 43 43 WNW 12 19 30.35 1028 10 16 N/A

Powered by AerisWeather